Regional Weather Roundup
Issued by NWS

Home | Current Version | Previous Version | Graphics & Text | Print | Product List | Glossary On
Versions: 1 2 3 4 5 6 7 8 9 10 11 12 13 14 15 16 17 18 19 20 21 22 23 24 25 26 27 28 29 30 31 32 33 34 35 36 37 38 39 40 41 42 43 44 45 46 47 48 49 50
000
ASUS43 KIND 312059
RWRIN

WEATHER ROUNDUP FOR INDIANA
NATIONAL WEATHER SERVICE INDIANAPOLIS IN
500 PM EDT WED AUG 31 2016

NOTE: "FAIR" INDICATES FEW OR NO CLOUDS BELOW 12,000 FEET WITH NO
SIGNIFICANT WEATHER AND/OR OBSTRUCTIONS TO VISIBILITY.

* - STATION DOES NOT REPORT WEATHER SUCH AS PRECIPITATION OR FOG.

+ - STATION NOT QUALITY CONTROLLED BY THE NATIONAL WEATHER SERVICE.
    USE DATA WITH CAUTION...ESPECIALLY DEWPOINT AND RELATIVE
    HUMIDITY OBSERVATIONS.

INZ001>003-010>013-019-020-312200-
NORTHWEST INDIANA

CITY           SKY/WX    TMP DP  RH WIND       PRES   REMARKS
GARY /AIRPORT/ PTSUNNY   75  61  60 N17       30.07S
KNOX *+        CLOUDY    72  37  28 N17       30.02S
MONTICELLO +   MOSUNNY   80  63  56 N15G24    29.99R
RENSSELAER +   MOSUNNY   73  63  68 N12G21    30.03R

$$

LMZ046-743>745-312200-
SOUTHERN LAKE MICHIGAN

STATION/POSITION TIME  TEMP    WIND        PRES    WAVE
                       AIR SEA DIR/SP/G            HT
                 (UTC) (F)     (DEG/KT/KT) (MB)    (FT)
BURNS HARBOR     2008   71     360/ 16/ 22 1017.9F
MICHIGAN CITY    2000   71     350/ 23/ 25   N/A
5NW MICH CITY    2000   71 68  360/ 19/ 23   N/A     6

$$

INZ004-005-014>016-021>024-312200-
NORTH CENTRAL INDIANA

CITY           SKY/WX    TMP DP  RH WIND       PRES   REMARKS
ELKHART        MOSUNNY  N/A N/A N/A NW14      30.01R
GOSHEN         CLOUDY    76  68  76 N10       30.00R
PERU/GRISSOM   PTSUNNY   77  70  78 VRB3      29.97R
SOUTH BEND     PTSUNNY   73  57  57 N17       30.03R

$$

INZ006>009-017-018-025>027-312200-
NORTHEAST INDIANA

CITY           SKY/WX    TMP DP  RH WIND       PRES   REMARKS
ANGOLA *+      PTSUNNY   75  68  78 VRB6      29.99S
FORT WAYNE     CLOUDY    82  66  58 NW8       29.97R

$$

INZ028-029-035-036-043>045-051>053-312200-
WEST CENTRAL INDIANA

CITY           SKY/WX    TMP DP  RH WIND       PRES   REMARKS
CRAWFORDSVL +  CLOUDY    78  70  75 NW12G17   29.98S
GREENCASTLE +  PTSUNNY   82  70  65 N7        29.98S
LAFAYETTE      CLOUDY    81  68  64 N15       29.97F
TERRE HAUTE    CLOUDY    83  72  69 N6        29.97S

$$

INZ030>032-037>040-046>048-054>057-064-065-312200-
CENTRAL INDIANA

CITY           SKY/WX    TMP DP  RH WIND       PRES   REMARKS
INDIANAPOLIS   PTSUNNY   85  68  56 N12       29.96S
-EAGLE CREEK   MOSUNNY   85  67  54 N10       29.96S
KOKOMO *+      CLOUDY    72  70  94 NW5       29.98R
MT COMFORT *+  MOSUNNY   81  70  69 N9        29.97S
SHELBYVILLE    MOSUNNY   84  70  62 N10       29.95F

$$

INZ033-034-041-042-049-050-058-059-312200-
EAST CENTRAL INDIANA

CITY           SKY/WX    TMP DP  RH WIND       PRES   REMARKS
MUNCIE         MOSUNNY   81  69  67 N7        29.97S

$$

INZ060-061-067>069-081>083-085>088-312200-
SOUTHWEST INDIANA

CITY           SKY/WX    TMP DP  RH WIND       PRES   REMARKS
EVANSVILLE     MOSUNNY   89  69  51 NW9       29.95F
HUNTINGBURG *+ PTSUNNY   88  72  58 NW10      29.95S

$$

INZ062-063-066-070>080-084-089>092-312200-
SOUTH CENTRAL AND SOUTHEAST INDIANA

CITY           SKY/WX    TMP DP  RH WIND       PRES   REMARKS
BLOOMINGTON    MOSUNNY   84  70  62 VRB3      29.96F
MADISON *+     PTSUNNY   82  68  61 NW3       29.97S

$$




USA.gov is the U.S. government's official web portal to all federal, state and local government web resources and services.